EW1728 Weather Reports


time (UTC)temp
C
wind
direction
speed
KPH
gust
KPH
rain 1hr
cm
rain 24hr
cm
rain mn
cm
humidity
%
barometer
mb
20260503010027 10 101 0.0 0.0 0.00 0.89 0.89 97 1012.1
20260503005527 10 101 0.0 0.0 0.00 0.89 0.89 97 1012.1
20260503005025 10 101 0.0 0.0 0.00 0.89 0.89 97 1012.0
20260503004520 11 101 0.0 0.0 0.00 0.89 0.89 97 1012.0
20260503003935 11 101 0.0 0.0 0.00 0.89 0.89 96 1012.0
20260503003428 11 101 0.0 0.0 0.00 0.89 0.89 96 1011.9
20260503002929 11 101 0.0 0.0 0.00 0.89 0.89 96 1011.9
20260503002429 11 101 0.0 0.0 0.00 0.89 0.89 96 1011.8
20260503001927 11 101 0.0 0.0 0.00 0.89 0.89 96 1011.8
20260503001428 11 101 0.0 0.0 0.00 0.89 0.89 95 1011.7
20260503000926 11 101 0.0 0.0 0.00 0.89 0.89 95 1011.5
20260503000425 11 101 0.0 0.0 0.00 0.89 0.89 95 1011.5
20260502235905 11 101 0.0 0.0 0.00 0.89 0.89 95 1011.4
20260502235404 11 101 0.0 0.0 0.00 0.89 0.89 95 1011.3
20260502234837 11 101 0.0 0.0 0.00 0.89 0.89 95 1011.3
20260502234319 11 101 0.0 0.0 0.00 0.89 0.89 95 1011.3
20260502233754 11 101 0.0 0.0 0.00 0.89 0.89 95 1011.3
20260502233229 11 101 0.0 0.0 0.00 0.89 0.89 95 1011.3
20260502233147 11 101 0.0 0.0 0.00 0.89 0.89 94 1011.3
20260502232749 11 101 0.0 0.0 0.00 0.89 0.89 95 1011.3
20260502232249 11 101 0.0 0.0 0.00 0.89 0.89 94 1011.1
20260502231143 11 101 0.0 0.0 0.00 0.89 0.89 94 1011.0
20260502230617 11 101 0.0 0.0 0.00 0.89 0.89 94 1011.0
20260502225552 12 101 0.0 0.0 0.00 0.89 0.89 93 1011.0
20260502225021 12 101 0.0 0.0 0.00 0.89 0.89 92 1011.0
20260502224512 12 101 0.0 0.0 0.00 0.89 0.89 93 1011.1
20260502224010 12 101 0.0 0.0 0.00 0.89 0.89 93 1011.0
20260502223431 12 101 0.0 0.0 0.00 0.89 0.89 92 1011.1
20260502222923 12 101 0.0 0.0 0.00 0.89 0.89 92 1011.1
20260502222406 12 101 0.0 0.0 0.00 0.89 0.89 92 1011.0
20260502221908 12 101 0.0 0.0 0.00 0.89 0.89 91 1011.1
20260502221904 12 101 0.0 0.0 0.00 0.89 0.89 91 1010.9
20260502220851 12 101 0.0 0.0 0.00 0.89 0.89 91 1010.9
20260502220339 12 101 0.0 0.0 0.00 0.89 0.89 92 1010.8
20260502215835 12 101 0.0 0.0 0.00 0.89 0.89 92 1010.8
20260502215831 12 101 0.0 0.0 0.00 0.89 0.89 92 1010.9
20260502215435 12 101 0.0 0.0 0.00 0.89 0.89 92 1010.8
20260502214329 12 101 0.0 0.0 0.00 0.89 0.89 92 1010.7
20260502214324 12 101 0.0 0.0 0.00 0.89 0.89 92 1010.8
20260502213323 12 101 0.0 1.6 0.00 0.89 0.89 92 1010.7
20260502212823 12 101 0.0 1.6 0.00 0.89 0.89 91 1010.6
20260502212249 12 89 0.0 1.6 0.00 0.89 0.89 92 1010.7
20260502211749 12 84 0.0 1.6 0.00 0.89 0.89 91 1010.8
20260502211232 12 79 0.0 0.0 0.00 0.89 0.89 92 1010.8
20260502210728 12 79 0.0 1.6 0.00 0.89 0.89 91 1010.8
20260502210225 12 79 0.0 3.2 0.00 0.89 0.89 91 1010.8
20260502205722 12 46 1.6 3.2 0.00 0.89 0.89 89 1010.8
20260502205218 12 86 1.6 3.2 0.00 0.89 0.89 88 1010.9
20260502204657 12 70 0.0 3.2 0.00 0.89 0.89 90 1010.9
20260502204130 12 119 0.0 1.6 0.00 0.89 0.89 91 1010.9
20260502203630 12 119 0.0 1.6 0.00 0.89 0.89 92 1010.9
20260502203128 12 119 0.0 1.6 0.00 0.89 0.89 91 1010.9
20260502202602 12 119 0.0 1.6 0.00 0.89 0.89 91 1010.9
20260502202036 12 55 0.0 1.6 0.00 0.89 0.89 92 1010.9
20260502201529 12 20 0.0 4.8 0.00 0.89 0.89 91 1010.8
20260502201027 12 20 1.6 6.4 0.00 0.89 0.89 89 1010.9
20260502201023 12 304 1.6 6.4 0.00 0.89 0.89 90 1010.9
20260502200022 12 75 0.0 6.4 0.00 0.89 0.89 89 1010.9
20260502195522 12 98 0.0 1.6 0.00 0.89 0.89 91 1010.9
20260502195018 12 116 0.0 1.6 0.00 0.89 0.89 93 1011.1
20260502195006 12 72 0.0 1.6 0.00 0.89 0.89 92 1011.2
20260502194002 12 345 0.0 3.2 0.00 0.89 0.89 92 1011.2
20260502193457 12 57 1.6 3.2 0.00 0.91 0.89 93 1011.3
20260502193047 11 91 0.0 3.2 0.00 0.91 0.89 93 1011.4
20260502192953 11 94 0.0 3.2 0.00 0.91 0.89 93 1011.3
20260502192942 11 103 0.0 3.2 0.00 0.91 0.89 94 1011.4
20260502191438 11 134 1.6 6.4 0.03 0.91 0.89 95 1011.6
20260502190929 11 58 1.6 6.4 0.03 0.91 0.89 94 1011.5
20260502190432 11 31 1.6 8.0 0.03 0.91 0.89 93 1011.5
20260502190428 11 44 1.6 6.4 0.03 0.91 0.89 94 1011.6
20260502185429 11 47 1.6 8.0 0.05 0.91 0.89 93 1011.6
20260502184929 11 79 1.6 9.7 0.05 0.91 0.89 94 1011.6
20260502184428 11 73 1.6 9.7 0.05 0.91 0.89 93 1011.6
20260502183924 11 84 1.6 8.0 0.05 0.91 0.89 94 1011.6
20260502183422 11 51 1.6 8.0 0.05 0.91 0.89 95 1011.6
20260502182923 11 71 1.6 8.0 0.05 0.94 0.89 95 1011.6
20260502182422 11 71 1.6 8.0 0.08 0.94 0.89 95 1011.8
20260502181923 11 59 1.6 6.4 0.05 0.94 0.86 94 1011.9
20260502181418 11 69 1.6 6.4 0.05 0.99 0.86 95 1012.0
20260502180920 11 70 1.6 4.8 0.05 0.99 0.86 96 1012.0
20260502180406 11 76 0.0 4.8 0.08 0.99 0.86 95 1011.9
20260502170322 11 264 1.6 8.0 0.15 0.91 0.79 96 1011.9
20260502164302 11 54 0.0 6.4 0.15 0.89 0.76 96 1012.4
20260502163800 11 70 1.6 4.8 0.15 0.86 0.74 96 1012.6
20260502163300 11 67 1.6 6.4 0.15 0.86 0.74 96 1012.7
20260502162751 11 83 1.6 6.4 0.13 0.84 0.71 96 1012.9
20260502162238 11 53 1.6 8.0 0.10 0.81 0.71 96 1013.0
20260502161734 11 68 1.6 8.0 0.13 0.81 0.69 96 1012.8
20260502161234 11 75 1.6 4.8 0.10 0.79 0.66 96 1012.8
20260502160734 11 335 1.6 4.8 0.08 0.76 0.66 96 1012.8
20260502160234 11 57 1.6 6.4 0.10 0.76 0.64 95 1012.8
20260502152212 11 327 1.6 3.2 0.13 0.71 0.58 96 1012.7
20260502151712 11 51 3.2 8.0 0.10 0.69 0.56 96 1012.6
20260502151205 11 63 3.2 8.0 0.13 0.69 0.56 96 1012.8
20260502150702 11 35 1.6 11.3 0.13 0.69 0.56 96 1012.8
20260502150156 11 75 1.6 11.3 0.10 0.66 0.53 96 1013.0
20260502123410 11 79 1.6 4.8 0.13 0.38 0.28 95 1011.2
20260502122909 11 68 1.6 4.8 0.15 0.38 0.25 95 1011.0
20260502122414 11 75 3.2 8.0 0.13 0.36 0.23 95 1011.1
20260502122410 11 62 3.2 6.4 0.13 0.36 0.25 95 1011.1
20260502121410 11 201 3.2 8.0 0.13 0.33 0.20 95 1011.1
20260502120910 11 53 3.2 9.7 0.13 0.33 0.20 95 1011.0
20260502120410 11 88 3.2 9.7 0.10 0.30 0.18 95 1011.0
20260502115909 11 73 3.2 8.0 0.10 0.28 0.18 95 1011.0
20260502115406 11 311 1.6 8.0 0.10 0.28 0.15 94 1011.0
20260502114904 11 96 1.6 6.4 0.10 0.28 0.15 94 1011.1
20260502114404 11 91 1.6 6.4 0.08 0.25 0.13 94 1011.3
20260502114357 11 89 1.6 6.4 0.10 0.25 0.13 94 1011.4
20260502113357 11 68 1.6 6.4 0.10 0.25 0.13 94 1011.4
20260502112855 11 65 0.0 4.8 0.08 0.23 0.10 93 1011.5
20260502112356 11 58 0.0 4.8 0.10 0.23 0.10 93 1011.6
20260502111856 11 83 0.0 4.8 0.10 0.23 0.10 93 1011.7
20260502111845 11 57 0.0 4.8 0.08 0.20 0.08 93 1011.6
20260502110844 11 93 0.0 3.2 0.08 0.20 0.08 94 1011.6
20260502110345 11 44 0.0 3.2 0.08 0.20 0.08 94 1011.6
20260502105833 11 91 0.0 1.6 0.05 0.18 0.05 94 1011.5
20260502105335 11 334 0.0 1.6 0.05 0.18 0.05 94 1011.5
20260502105331 11 58 0.0 3.2 0.05 0.18 0.05 94 1011.4
20260502104328 11 59 0.0 3.2 0.05 0.18 0.05 94 1011.5
20260502103822 11 290 0.0 3.2 0.03 0.15 0.03 94 1011.5
20260502103322 12 60 1.6 6.4 0.03 0.15 0.03 94 1011.5
20260502102818 12 103 1.6 6.4 0.03 0.15 0.03 94 1011.5
20260502102318 11 172 1.6 4.8 0.00 0.13 0.00 94 1011.5
20260502101801 11 261 0.0 3.2 0.00 0.13 0.00 94 1011.4
20260502101302 11 174 0.0 3.2 0.00 0.13 0.00 94 1011.5
20260502100756 11 92 0.0 1.6 0.00 0.13 0.00 94 1011.5
20260502100733 11 56 0.0 3.2 0.00 0.13 0.00 94 1011.5
20260502091533 11 55 0.0 0.0 0.00 0.13 0.00 95 1011.6
20260502091015 11 56 0.0 1.6 0.00 0.13 0.00 95 1011.6
20260502091011 11 55 0.0 3.2 0.00 0.13 0.00 94 1011.6
20260502070629 11 75 0.0 0.0 0.00 0.13 0.00 97 1010.7
20260502070054 11 75 0.0 0.0 0.00 0.13 0.00 96 1010.7
20260502065527 11 75 0.0 0.0 0.00 0.13 0.00 97 1010.8
20260502065023 11 75 0.0 0.0 0.00 0.13 0.00 97 1010.9
20260502064508 11 75 0.0 0.0 0.00 0.13 0.00 97 1010.9
20260502063930 11 75 0.0 0.0 0.00 0.13 0.00 97 1010.9
20260502063425 11 75 0.0 0.0 0.00 0.13 0.00 97 1010.8
20260502063341 11 75 0.0 0.0 0.00 0.13 0.00 97 1011.0
20260502062341 11 75 0.0 0.0 0.00 0.13 0.00 97 1011.0
20260502062337 11 75 0.0 0.0 0.00 0.13 0.00 97 1011.1
20260502061333 11 75 0.0 0.0 0.00 0.13 0.00 97 1011.2
20260502060834 11 75 0.0 0.0 0.00 0.13 0.00 97 1011.3
20260502060311 11 75 0.0 0.0 0.00 0.13 0.00 97 1011.3
20260502055809 11 75 0.0 0.0 0.00 0.13 0.00 97 1011.2
20260502055734 11 75 0.0 0.0 0.00 0.13 0.00 96 1011.4
20260502055340 11 75 0.0 0.0 0.00 0.13 0.00 96 1011.5
20260502055336 11 75 0.0 0.0 0.00 0.13 0.00 96 1011.4
20260502053731 11 75 0.0 0.0 0.00 0.13 0.00 96 1011.5
20260502053233 11 75 0.0 0.0 0.00 0.13 0.00 96 1011.5
20260502053229 11 75 0.0 0.0 0.00 0.13 0.00 96 1011.5
20260502052137 11 75 0.0 0.0 0.00 0.13 0.00 96 1011.6
20260502052109 11 75 0.0 0.0 0.00 0.13 0.00 96 1011.7
20260502051539 11 75 0.0 0.0 0.00 0.13 0.00 96 1011.9
20260502050531 11 75 0.0 0.0 0.00 0.13 0.00 96 1011.9
20260502050023 11 75 0.0 0.0 0.00 0.13 0.00 96 1011.9
20260502045517 11 75 0.0 0.0 0.00 0.13 0.00 96 1011.9
20260502045004 11 75 0.0 0.0 0.00 0.13 0.00 96 1011.8
20260502044504 11 75 0.0 0.0 0.00 0.13 0.00 96 1011.9
20260502043939 11 75 0.0 0.0 0.00 0.13 0.00 96 1011.9
20260502043429 11 75 0.0 0.0 0.00 0.13 0.00 96 1012.0
20260502042929 11 75 0.0 0.0 0.00 0.13 0.00 96 1012.0
20260502042429 11 75 0.0 0.0 0.00 0.13 0.00 96 1012.0
20260502041925 11 75 0.0 0.0 0.00 0.13 0.00 96 1012.1
20260502041417 11 75 0.0 0.0 0.00 0.13 0.00 96 1012.0
20260502041353 11 75 0.0 0.0 0.00 0.13 0.00 96 1012.0
20260502040353 11 75 0.0 0.0 0.00 0.13 0.00 96 1011.9
20260502035827 11 75 0.0 0.0 0.00 0.13 0.13 96 1011.9
20260502035809 11 75 0.0 0.0 0.00 0.13 0.13 96 1011.9
20260502034737 11 75 0.0 0.0 0.00 0.13 0.13 96 1012.0
20260502034231 11 75 0.0 0.0 0.00 0.13 0.13 95 1011.9
20260502033723 11 75 0.0 0.0 0.00 0.13 0.13 95 1012.0
20260502033223 11 75 0.0 0.0 0.00 0.13 0.13 96 1012.1
20260502032719 11 75 0.0 0.0 0.00 0.13 0.13 96 1012.3
20260502032222 11 75 0.0 0.0 0.00 0.13 0.13 96 1012.4
20260502032218 11 75 0.0 0.0 0.00 0.13 0.13 96 1012.3
20260502031154 11 75 0.0 0.0 0.00 0.13 0.13 96 1012.5
20260502030640 11 75 0.0 0.0 0.00 0.13 0.13 95 1012.7
20260502030111 11 75 0.0 0.0 0.00 0.13 0.13 95 1012.5
20260502025555 11 75 0.0 0.0 0.00 0.13 0.13 95 1012.5
20260502025053 11 75 0.0 0.0 0.00 0.13 0.13 95 1012.5
20260502025033 11 75 0.0 0.0 0.00 0.13 0.13 96 1012.6
20260502024025 11 75 0.0 0.0 0.00 0.13 0.13 95 1012.7
20260502023540 11 75 0.0 0.0 0.00 0.13 0.13 96 1012.7
20260502023523 11 75 0.0 0.0 0.00 0.13 0.13 95 1012.7
20260502023020 11 75 0.0 0.0 0.00 0.13 0.13 96 1012.7
20260502022934 11 75 0.0 0.0 0.00 0.13 0.13 96 1012.7
20260502021431 11 75 0.0 0.0 0.00 0.13 0.13 96 1012.7
20260502020909 11 75 0.0 0.0 0.00 0.13 0.13 96 1012.8
20260502020406 11 75 0.0 0.0 0.00 0.13 0.13 95 1012.8
20260502020341 11 75 0.0 0.0 0.00 0.13 0.13 95 1012.7
20260502015330 11 75 0.0 0.0 0.00 0.13 0.13 95 1012.7
20260502015322 11 75 0.0 0.0 0.00 0.13 0.13 95 1012.5
20260502014926 11 75 0.0 0.0 0.00 0.13 0.13 95 1012.7
20260502013819 11 75 0.0 0.0 0.00 0.13 0.13 95 1012.5
20260502013317 11 75 0.0 0.0 0.00 0.13 0.13 95 1012.5
20260502013259 11 75 0.0 0.0 0.00 0.13 0.13 94 1012.5
20260502012243 11 75 0.0 0.0 0.00 0.13 0.13 95 1012.6
20260502011739 11 75 0.0 0.0 0.00 0.13 0.13 95 1012.5
20260502011223 11 75 0.0 0.0 0.00 0.13 0.13 94 1012.3
20260502010716 11 75 0.0 0.0 0.00 0.13 0.13 94 1012.1